User: anonymous   Login
Location: Caltech
(34.1382°N, 118.1253°W)
Time: 20:34:01
(UTC-07:00)
Language:

OAO 2 Rocket - Orbit

View from above orbital plane
View from above orbital plane
View from above satellite
View from above satellite

Ground track
Ground track

The orbit data is extracted from the following two-line orbital elements,

1 03598U 68110B   15241.52934968  .00000163  00000-0  42078-4 0  9995
2 03598 034.9939 090.3943 0050256 293.4324 066.1091 14.54089519470681
Epoch (UTC): 29 August 2015 12:42:15
Eccentricity: 0.0050256
inclination: 34.9939°
perigee height: 676 km
apogee height: 748 km
right ascension of ascending node: 90.3943°
argument of perigee: 293.4324°
revolutions per day: 14.54089519
mean anomaly at epoch: 66.1091°
orbit number at epoch: 47068

The dashed part of the orbit path shows where the satellite is in the earth's shadow,  

DLR